Snowfall_Accumulation
0.0 0.0 0.0 0.0 0.0 0.0 0.0 0.0 0.0 0.0 0.0 0.0 0.0 0.0 0.0 0.0 0.0 0.0 0.0 0.0 0.0 0.0 0.0 0.0 0.0 0.0 0.0 0.0 0.0 0.0 0.0 0.0 0.0 0.0 0.0 0.0 0.0 0.0 0.0 0.0 0.0 0.0 0.0
0.0 0.0 0.0 0.0 0.0 0.0 0.0 0.0 0.0 0.0 0.0 0.0 0.0 0.0 0.0 0.0 0.0 0.0 0.0 0.0 0.0 0.0 0.0 0.0 0.0 0.0 0.0 0.0 0.0 0.0 0.0 0.0 0.0 0.4 0.3 0.8 0.4 0.0 0.0 0.0 0.0 0.0 0.0
0.0 0.0 0.0 0.0 0.0 0.0 0.0 0.0 0.0 0.0 0.0 0.0 0.0 0.0 0.0 0.0 0.0 0.0 0.0 0.0 0.0 0.0 0.0 0.0 0.0 0.0 0.0 0.0 0.0 0.0 0.0 0.0 0.0 0.1 1.7 0.7 0.8 0.3 0.2 0.0 0.0 0.0 0.0
0.0 0.0 0.0 0.0 0.0 0.0 0.0 0.0 0.0 0.0 0.0 0.0 0.0 0.0 0.0 0.0 0.0 0.0 0.0 0.0 0.0 0.0 0.0 0.0 0.0 0.0 0.0 0.0 0.0 0.0 0.0 0.0 0.0 0.5 1.6 2.6 1.3 1.0 0.1 0.4 0.5 0.0 0.2
0.0 0.0 0.0 0.0 0.0 0.0 0.0 0.0 0.0 0.0 0.0 0.0 0.0 0.0 0.0 0.0 0.0 0.0 0.0 0.0 0.0 0.0 0.0 0.0 0.0 nan nan nan 0.0 0.0 0.0 0.0 0.6 1.7 2.9 2.8 2.9 2.2 1.3 0.5 0.2 0.1 0.1
0.0 0.0 0.0 0.0 0.0 0.0 0.0 0.0 0.0 0.0 0.0 0.0 0.0 0.0 0.0 0.0 nan nan 0.0 0.0 0.0 0.0 0.0 0.0 0.0 0.0 0.0 nan nan nan nan 0.0 0.7 0.9 0.8 0.8 0.5 0.1 0.1 0.1 0.2 0.3 0.5
0.0 0.0 0.0 0.0 0.0 0.0 0.0 0.0 0.0 0.0 0.0 0.0 0.0 0.0 0.0 0.1 nan nan nan 0.1 0.1 0.1 0.1 0.0 0.0 0.0 nan 0.0 nan nan nan nan 0.0 0.0 0.2 0.3 0.2 0.1 0.0 0.1 0.0 0.0 0.1
0.0 0.0 0.0 0.0 0.0 0.0 0.0 0.0 0.0 0.0 0.0 0.0 0.0 0.0 0.0 0.0 nan nan nan 0.0 0.1 0.1 0.1 0.1 0.1 0.2 0.1 0.2 0.1 0.1 0.1 0.0 0.1 0.0 0.0 0.1 0.0 0.0 0.0 0.0 0.0 0.0 0.1
0.0 0.0 0.0 0.0 0.0 0.0 0.0 0.0 0.0 0.0 0.0 0.0 0.0 0.0 0.0 0.0 nan nan 0.0 0.0 0.0 0.1 0.1 0.2 0.1 0.2 nan nan 0.4 0.9 1.0 0.7 nan nan nan nan nan nan nan 0.2 0.7 0.2 0.4
0.0 0.0 0.0 0.0 0.0 0.0 0.0 0.0 0.0 0.0 0.0 0.5 0.1 0.1 nan 0.0 nan nan nan 0.0 0.0 0.1 0.0 0.0 nan 0.1 nan nan 0.1 0.2 0.9 1.0 1.2 0.8 0.2 0.1 nan nan nan 0.0 0.7 1.6 1.6
0.0 0.0 0.0 0.0 0.0 0.0 0.0 0.0 0.0 0.1 0.1 0.3 0.2 0.2 0.1 0.0 0.1 nan nan 0.1 0.2 0.3 0.3 0.3 0.2 nan nan nan nan 0.0 0.2 0.2 0.5 0.5 0.6 1.6 1.0 0.5 0.6 0.4 0.1 0.5 1.3
0.1 0.0 0.0 0.0 0.0 0.0 0.0 0.0 0.0 0.1 0.2 0.4 0.5 1.0 1.0 0.2 nan nan nan nan nan 0.4 0.4 0.7 0.7 nan nan nan 0.7 nan nan 0.2 0.9 1.2 1.8 2.7 2.3 2.4 1.4 0.9 0.1 0.2 0.5
0.1 0.2 0.1 0.0 0.1 0.0 0.0 0.1 0.5 0.1 0.6 0.3 1.3 1.8 1.9 1.5 1.4 nan nan nan nan 1.5 1.3 1.8 nan nan nan 0.5 nan nan 1.9 2.5 3.6 4.9 3.9 3.1 1.6 0.8 0.2 0.3 0.0 0.0 0.1
0.0 0.1 0.1 0.1 0.1 0.2 0.6 0.7 0.9 1.2 1.6 2.1 2.7 3.3 2.6 2.9 2.3 2.1 2.9 2.2 nan 4.6 1.8 5.4 2.6 3.4 2.2 3.5 5.1 5.3 3.4 3.2 3.3 2.5 2.1 1.5 1.0 0.9 0.8 0.5 0.8 0.5 0.8
0.0 0.0 0.0 0.1 0.1 0.2 0.7 2.1 2.0 2.6 2.3 2.9 3.0 2.6 5.7 7.6 7.3 4.1 4.5 5.5 5.8 4.1 6.4 8.8 9.5 8.0 6.9 4.6 3.7 3.8 2.2 1.5 1.9 2.0 2.2 2.1 1.6 1.2 1.4 0.5 0.5 0.6 1.0
0.0 0.1 0.2 0.2 0.3 0.4 0.7 1.6 nan nan nan nan nan 2.6 6.8 nan nan nan nan nan nan nan 6.5 7.0 9.9 9.4 6.5 4.5 4.2 3.4 2.4 2.6 2.1 1.9 2.7 2.2 2.4 2.7 2.5 1.8 1.4 1.6 1.8
0.0 0.0 0.3 0.3 0.5 0.6 0.8 1.2 3.7 5.5 nan nan nan nan nan nan nan nan nan nan nan nan 8.2 8.8 11.0 11.4 7.2 4.0 3.7 3.9 4.4 3.4 2.0 3.1 3.5 4.8 5.0 4.5 5.6 3.6 3.4 2.6 2.4
0.1 0.0 0.7 1.1 1.4 2.2 2.6 3.1 3.2 4.5 7.2 5.8 nan nan nan nan nan nan nan nan 12.3 nan 6.3 7.5 8.6 7.6 5.8 5.2 5.3 5.2 4.5 5.4 5.7 5.3 5.4 6.5 7.5 5.6 5.7 4.4 3.7 5.3 3.2
0.2 0.6 0.6 0.8 1.0 0.9 1.4 1.9 1.8 2.2 2.4 2.7 2.7 2.1 1.7 nan nan nan nan 3.2 5.6 5.9 5.1 5.5 5.7 4.9 5.2 4.7 7.4 7.9 9.7 9.1 9.1 11.5 7.9 8.6 13.6 4.8 5.9 4.7 4.4 3.6 3.2
0.4 0.0 0.4 1.0 1.3 1.6 1.4 1.8 1.8 1.8 1.8 1.7 1.8 1.9 1.9 1.5 5.7 9.9 6.1 8.8 7.0 3.8 3.5 3.0 3.1 2.9 3.7 3.8 7.1 11.9 10.4 10.7 8.8 7.6 12.1 15.5 14.0 7.4 8.4 7.7 8.0 7.6 4.8
0.5 0.6 0.0 0.9 1.1 1.3 1.7 2.0 1.7 2.2 2.1 1.8 2.3 3.7 0.4 1.5 2.9 3.1 3.0 4.7 3.6 3.1 4.4 2.4 2.9 3.7 3.5 4.2 2.7 5.9 3.6 12.4 5.9 6.1 5.7 6.2 23.8 10.7 5.8 5.5 6.1 5.0 3.7
0.7 0.7 0.8 1.1 1.1 2.1 1.6 1.3 1.7 1.7 1.6 1.9 2.5 2.9 3.2 4.4 2.7 2.7 2.6 4.1 6.1 2.3 1.7 2.2 2.1 2.2 2.2 2.4 3.1 9.8 7.9 11.2 8.5 6.7 6.1 6.7 5.5 5.6 5.4 5.8 6.7 6.7 5.0
0.8 1.3 1.1 1.0 1.0 3.8 2.4 1.4 2.2 2.8 2.3 2.9 2.3 3.1 4.0 4.8 4.6 3.2 4.1 5.3 3.1 3.4 2.6 2.1 4.2 3.1 2.5 3.7 3.6 3.0 5.5 5.3 5.1 6.1 7.9 7.7 5.0 5.5 8.7 7.0 5.9 7.7 7.9
0.6 1.4 1.1 2.0 2.9 1.6 3.4 5.2 3.0 5.3 3.0 3.8 7.1 5.7 4.9 5.6 9.9 7.8 7.7 8.4 5.9 7.8 7.5 7.5 2.9 2.4 2.8 7.3 4.6 3.5 2.4 4.7 3.9 4.8 4.9 7.9 5.6 4.3 6.7 6.4 6.1 7.4 8.6
1.8 3.3 3.5 2.4 2.8 6.4 8.4 5.7 5.8 6.5 6.2 7.8 9.6 7.4 2.9 6.2 5.6 12.8 10.6 8.7 7.3 11.1 6.7 8.5 7.2 5.0 5.4 5.4 5.8 2.3 2.9 3.7 5.1 4.2 6.4 4.3 5.7 5.8 7.1 6.8 8.4 6.4 7.5
1.6 1.9 3.2 3.5 4.4 6.8 7.2 11.1 11.4 9.2 9.6 10.5 10.9 11.4 8.4 6.3 5.6 11.1 9.0 9.1 9.0 8.7 8.5 10.6 9.7 8.2 7.3 7.0 5.3 5.9 5.3 4.7 8.7 5.0 9.4 5.9 7.7 7.2 7.0 6.3 6.3 8.7 5.6
Water_Equivalent
0.00 0.00 0.00 0.00 0.00 0.00 0.00 0.00 0.00 0.00 0.00 0.00 0.00 0.00 0.00 0.00 0.00 0.00 0.00 0.00 0.00 0.00 0.00 0.00 0.00 0.00 0.00 0.00 0.00 0.00 0.00 0.00 0.00 0.01 0.00 0.00 0.00 0.00 0.00 0.00 0.00 0.00 0.00
0.00 0.00 0.00 0.00 0.00 0.00 0.00 0.00 0.00 0.00 0.00 0.00 0.00 0.00 0.00 0.00 0.00 0.00 0.00 0.00 0.00 0.00 0.00 0.00 0.00 0.00 0.00 0.00 0.00 0.00 0.00 0.00 0.00 0.09 0.09 0.22 0.11 0.00 0.00 0.00 0.00 0.00 0.00
0.00 0.00 0.00 0.00 0.00 0.00 0.00 0.00 0.00 0.00 0.00 0.00 0.00 0.00 0.00 0.00 0.00 0.00 0.00 0.00 0.00 0.00 0.00 0.00 0.00 0.00 0.00 0.00 0.00 0.00 0.00 0.00 0.00 0.02 0.41 0.18 0.22 0.08 0.05 0.01 0.00 0.00 0.00
0.00 0.00 0.00 0.00 0.00 0.00 0.00 0.00 0.00 0.00 0.00 0.00 0.00 0.00 0.00 0.00 0.00 0.00 0.00 0.00 0.00 0.00 0.00 0.00 0.00 0.00 0.00 0.00 0.00 0.00 0.00 0.00 0.02 0.19 0.44 0.64 0.31 0.25 0.03 0.09 0.11 0.00 0.06
0.00 0.00 0.00 0.00 0.00 0.00 0.00 0.00 0.00 0.00 0.00 0.00 0.00 0.00 0.00 0.00 0.00 0.00 0.00 0.00 0.00 0.00 0.00 0.00 0.00 nan nan nan 0.00 0.00 0.00 0.00 0.15 0.42 0.62 0.56 0.60 0.48 0.26 0.11 0.03 0.02 0.02
0.00 0.00 0.00 0.00 0.00 0.00 0.00 0.00 0.00 0.00 0.00 0.00 0.00 0.00 0.02 0.00 nan nan 0.00 0.00 0.00 0.00 0.00 0.00 0.00 0.00 0.00 nan nan nan nan 0.00 0.18 0.19 0.16 0.14 0.10 0.03 0.02 0.02 0.03 0.05 0.08
0.00 0.00 0.00 0.00 0.00 0.00 0.00 0.00 0.00 0.00 0.00 0.00 0.00 0.00 0.01 0.02 nan nan nan 0.04 0.03 0.03 0.03 0.01 0.01 0.00 nan 0.00 nan nan nan nan 0.00 0.00 0.03 0.06 0.04 0.01 0.00 0.02 0.00 0.00 0.03
0.00 0.00 0.00 0.00 0.00 0.00 0.00 0.00 0.00 0.00 0.00 0.00 0.00 0.00 0.00 0.01 nan nan nan 0.02 0.03 0.03 0.03 0.05 0.03 0.05 0.03 0.06 0.04 0.03 0.02 0.01 0.02 0.00 0.00 0.02 0.02 0.00 0.00 0.00 0.00 0.00 0.02
0.00 0.00 0.00 0.00 0.00 0.00 0.00 0.00 0.00 0.00 0.00 0.00 0.00 0.01 0.01 0.00 nan nan 0.00 0.00 0.01 0.04 0.04 0.06 0.04 0.07 nan nan 0.11 0.23 0.26 0.18 nan nan nan nan nan nan nan 0.05 0.17 0.06 0.15
0.00 0.00 0.00 0.00 0.00 0.00 0.00 0.00 0.01 0.01 0.01 0.19 0.04 0.02 nan 0.02 nan nan nan 0.00 0.01 0.05 0.00 0.00 nan 0.02 nan nan 0.04 0.05 0.19 0.23 0.34 0.24 0.06 0.02 nan nan nan 0.01 0.19 0.34 0.39
0.00 0.00 0.00 0.00 0.00 0.00 0.00 0.00 0.01 0.02 0.04 0.08 0.06 0.06 0.03 0.01 0.03 nan nan 0.03 0.04 0.08 0.09 0.09 0.07 nan nan nan nan 0.01 0.04 0.05 0.14 0.14 0.18 0.50 0.30 0.14 0.18 0.14 0.03 0.17 0.32
0.04 0.01 0.00 0.00 0.00 0.00 0.00 0.00 0.01 0.03 0.08 0.12 0.13 0.31 0.30 0.06 nan nan nan nan nan 0.12 0.13 0.25 0.27 nan nan nan 0.21 nan nan 0.06 0.32 0.39 0.51 0.67 0.56 0.57 0.39 0.30 0.03 0.08 0.17
0.04 0.10 0.05 0.02 0.03 0.00 0.00 0.02 0.18 0.03 0.19 0.09 0.38 0.48 0.48 0.41 0.41 nan nan nan nan 0.43 0.45 0.64 nan nan nan 0.18 nan nan 0.63 0.74 1.02 1.27 0.96 0.74 0.41 0.22 0.06 0.09 0.01 0.00 0.02
0.02 0.02 0.03 0.05 0.03 0.07 0.24 0.27 0.34 0.40 0.53 0.68 0.76 0.88 0.71 0.76 0.59 0.60 0.86 0.73 nan 1.38 0.58 1.80 0.86 1.09 0.71 1.09 1.49 1.43 0.94 0.90 0.87 0.64 0.48 0.35 0.25 0.23 0.21 0.14 0.24 0.16 0.23
0.00 0.00 0.00 0.03 0.03 0.08 0.28 0.85 0.82 1.02 0.78 0.93 0.94 0.83 1.59 2.06 2.09 1.45 1.44 1.68 1.80 1.25 1.81 2.26 2.19 1.75 1.46 0.99 0.79 0.80 0.50 0.35 0.45 0.47 0.50 0.46 0.36 0.30 0.34 0.15 0.15 0.16 0.28
0.00 0.02 0.08 0.09 0.13 0.18 0.27 0.56 nan nan nan nan nan 0.96 2.54 nan nan nan nan nan nan nan 1.50 1.48 1.96 1.88 1.25 0.87 0.82 0.67 0.50 0.64 0.47 0.46 0.65 0.52 0.53 0.58 0.55 0.43 0.34 0.36 0.40
0.00 0.00 0.12 0.11 0.18 0.24 0.28 0.39 1.01 1.77 nan nan nan nan nan nan nan nan nan nan nan nan 1.77 1.75 2.16 2.22 1.42 0.80 0.73 0.77 0.87 0.72 0.42 0.68 0.77 1.01 1.06 0.95 1.16 0.75 0.73 0.54 0.49
0.05 0.00 0.29 0.42 0.55 0.86 1.01 1.11 1.08 1.33 1.79 1.50 nan nan nan nan nan nan nan nan 2.10 nan 1.24 1.46 1.74 1.58 1.20 1.03 1.05 1.01 0.89 1.11 1.18 1.12 1.12 1.35 1.56 1.13 1.18 0.88 0.75 1.03 0.65
0.09 0.22 0.25 0.32 0.37 0.34 0.47 0.55 0.51 0.58 0.63 0.65 0.63 0.54 0.54 nan nan nan nan 0.67 0.96 0.96 0.92 0.96 1.06 0.89 0.96 0.89 1.47 1.62 1.98 1.85 1.90 2.36 1.63 1.79 3.04 1.00 1.21 0.98 0.92 0.91 0.83
0.14 0.00 0.15 0.32 0.43 0.47 0.42 0.47 0.44 0.43 0.42 0.40 0.41 0.43 0.40 0.33 1.24 2.17 1.38 2.09 1.42 0.71 0.68 0.55 0.56 0.54 0.69 0.71 1.38 2.42 2.12 2.15 1.70 1.47 2.41 3.34 3.05 1.50 1.56 1.41 1.53 1.45 0.85
0.20 0.22 0.00 0.28 0.35 0.35 0.43 0.48 0.41 0.52 0.51 0.43 0.58 0.94 0.12 0.34 0.66 0.67 0.63 0.97 0.72 0.60 0.90 0.46 0.60 0.77 0.71 0.86 0.53 1.11 0.68 2.59 1.09 1.14 1.05 1.16 5.35 1.83 1.05 1.04 1.16 0.92 0.67
0.21 0.23 0.25 0.33 0.32 0.53 0.42 0.33 0.43 0.42 0.39 0.46 0.59 0.64 1.07 1.09 0.60 0.58 0.55 0.95 1.62 0.51 0.39 0.53 0.47 0.46 0.45 0.49 0.60 2.08 1.52 2.21 1.73 1.29 1.14 1.20 1.02 1.08 0.99 1.06 1.21 1.21 0.88
0.24 0.40 0.31 0.28 0.30 1.22 0.65 0.35 0.56 0.71 0.58 0.75 0.54 0.66 0.83 1.11 1.07 0.70 0.92 1.54 0.70 0.83 0.67 0.53 1.14 0.69 0.62 0.93 0.87 0.65 1.05 0.96 0.97 1.22 1.52 1.50 0.90 1.01 1.65 1.26 1.06 1.29 1.25
0.22 0.46 0.31 0.56 0.79 0.42 0.93 1.42 0.79 1.71 0.73 0.95 1.84 1.40 1.15 1.31 2.71 2.00 2.13 2.63 1.56 2.16 2.14 2.12 0.71 0.51 0.59 1.98 1.15 0.84 0.54 1.05 0.84 0.91 1.02 1.45 1.03 0.96 1.25 1.13 1.09 1.20 1.35
0.57 0.99 1.06 0.65 0.75 1.78 2.32 1.55 1.46 1.73 1.60 2.06 2.49 1.85 0.63 1.49 1.23 3.27 2.53 1.88 1.63 2.62 1.46 1.90 1.56 1.02 1.13 1.05 1.04 0.41 0.63 1.22 1.23 1.37 1.19 0.78 1.06 1.00 1.14 1.07 1.38 1.05 1.15
0.45 0.54 0.86 0.91 1.09 1.79 1.79 2.72 2.75 2.23 2.26 2.59 2.66 2.77 1.96 1.36 1.22 2.61 1.86 1.79 1.64 1.57 1.50 1.81 1.69 1.35 1.15 1.12 0.81 1.83 1.76 1.55 1.70 1.64 1.83 1.07 1.34 1.26 1.23 1.08 1.06 1.33 0.82
SL_Ratio
nan nan nan nan nan nan nan nan nan nan nan nan nan nan nan nan nan nan nan nan nan nan nan nan nan nan nan nan nan nan nan nan 2.5 3.7 nan nan 0.0 nan nan nan nan nan nan
nan nan nan nan nan nan nan nan nan nan nan nan nan nan nan nan nan nan nan nan nan nan nan nan nan nan nan nan nan nan nan nan nan 4.3 3.5 3.4 3.6 5.0 nan nan nan nan nan
nan nan nan nan nan nan nan nan nan nan nan nan nan nan nan nan nan nan nan nan nan nan nan nan nan nan nan nan nan nan nan nan nan 4.3 4.0 3.7 3.8 4.1 4.4 4.5 nan nan nan
nan nan nan nan nan nan nan nan nan nan nan nan nan nan nan nan nan nan nan nan nan nan nan nan nan nan nan nan nan nan nan nan 2.7 2.9 3.7 4.1 4.2 3.9 4.2 4.2 4.6 5.0 3.4
nan nan nan nan nan nan nan nan nan nan nan nan nan nan nan nan nan nan nan nan nan nan nan nan nan nan nan nan nan nan nan 4.3 3.8 4.1 4.7 4.9 4.8 4.6 4.9 5.0 4.9 5.3 5.5
nan nan nan nan nan nan nan nan nan nan nan nan nan 5.0 2.7 nan nan nan nan nan nan nan 3.3 nan nan nan nan nan nan nan nan 3.3 4.1 4.7 5.2 5.5 5.5 5.4 5.2 5.4 5.6 6.0 6.7
nan nan nan nan nan nan nan nan nan nan nan nan nan 3.6 3.3 2.8 nan nan nan 2.6 2.7 2.9 2.9 2.9 3.0 nan nan nan nan nan nan nan nan 5.0 5.2 4.8 5.7 5.2 5.0 5.8 6.4 5.0 4.2
nan nan nan nan nan nan nan nan nan nan nan nan nan nan 3.3 3.1 nan nan nan 2.7 2.9 2.8 2.9 2.9 3.0 3.0 3.1 3.3 3.3 3.2 3.3 3.3 3.2 5.0 4.2 3.7 3.0 0.0 nan nan 5.7 6.7 2.6
nan nan nan nan nan nan nan nan nan nan nan nan nan 3.5 3.5 nan nan nan nan nan 2.9 2.9 3.0 3.1 3.0 3.1 nan nan 3.7 4.0 3.9 3.7 nan nan nan nan nan nan nan 3.1 4.0 2.9 2.8
nan nan nan nan nan nan nan 2.9 2.8 3.1 3.1 2.8 3.2 3.3 nan 2.6 nan nan nan nan 4.1 2.6 nan nan nan 3.3 nan nan 3.6 4.0 4.7 4.5 3.6 3.4 3.4 3.8 nan nan nan 3.3 3.9 4.7 4.0
nan nan nan nan nan nan nan nan 3.3 3.1 3.0 3.2 3.1 2.8 2.5 2.3 2.9 nan nan 3.6 3.6 3.2 3.1 3.0 2.7 nan nan nan nan 3.8 4.4 4.1 3.7 3.6 3.4 3.3 3.2 3.4 3.1 3.0 2.9 3.2 4.1
2.5 2.6 nan nan nan nan nan nan 3.0 3.1 3.1 3.6 3.6 3.3 3.3 3.0 nan nan nan nan nan 3.5 3.4 2.9 2.7 nan nan nan 3.2 nan nan 2.9 2.9 3.1 3.5 4.1 4.1 4.1 3.5 3.2 3.0 2.9 2.9
2.5 2.5 2.5 2.4 2.5 nan 2.5 2.9 2.9 3.3 3.3 3.7 3.4 3.8 3.9 3.6 3.4 nan nan nan nan 3.4 2.9 2.9 nan nan nan 3.0 nan nan 3.0 3.4 3.5 3.8 4.1 4.2 4.0 3.6 3.5 3.7 4.7 5.0 3.1
2.5 2.4 2.4 2.6 2.4 2.5 2.5 2.5 2.7 3.0 3.1 3.1 3.6 3.7 3.7 3.8 3.9 3.5 3.4 3.0 nan 3.3 3.1 3.0 3.0 3.1 3.0 3.2 3.4 3.7 3.6 3.5 3.8 4.0 4.4 4.3 4.0 4.0 3.8 3.3 3.5 3.3 3.5
nan nan nan 2.5 2.6 2.5 2.5 2.5 2.5 2.5 2.9 3.1 3.1 3.1 3.6 3.7 3.5 2.9 3.1 3.2 3.3 3.3 3.5 3.9 4.3 4.6 4.7 4.6 4.8 4.8 4.4 4.1 4.2 4.2 4.5 4.6 4.4 4.1 4.2 3.4 3.4 3.5 3.8
nan 2.5 2.5 2.5 2.5 2.5 2.6 2.8 nan nan nan nan nan 2.7 2.7 nan nan nan nan nan nan nan 4.3 4.7 5.1 5.0 5.2 5.2 5.1 5.0 4.8 4.1 4.4 4.1 4.2 4.2 4.5 4.6 4.6 4.2 4.1 4.3 4.5
nan nan 2.5 2.5 2.5 2.6 2.8 3.0 3.7 3.1 nan nan nan nan nan nan nan nan nan nan nan nan 4.6 5.0 5.1 5.1 5.1 5.0 5.1 5.0 5.1 4.7 4.9 4.5 4.5 4.7 4.7 4.8 4.8 4.8 4.7 4.8 4.9
2.5 nan 2.5 2.5 2.5 2.5 2.6 2.8 2.9 3.4 4.0 3.9 nan nan nan nan nan nan nan nan 5.9 nan 5.1 5.1 5.0 4.8 4.8 5.1 5.1 5.2 5.0 4.9 4.8 4.8 4.8 4.8 4.8 4.9 4.9 5.0 4.9 5.2 5.0
2.5 2.5 2.5 2.6 2.7 2.6 2.9 3.4 3.5 3.8 3.8 4.1 4.3 3.9 3.2 nan nan nan nan 4.8 5.9 6.1 5.5 5.7 5.4 5.5 5.4 5.3 5.0 4.9 4.9 4.9 4.8 4.9 4.9 4.8 4.5 4.7 4.9 4.8 4.8 3.9 3.8
2.5 2.5 2.6 3.0 3.1 3.4 3.4 3.8 4.1 4.1 4.2 4.2 4.4 4.3 4.7 4.6 4.6 4.6 4.4 4.2 4.9 5.3 5.2 5.4 5.4 5.3 5.4 5.3 5.2 4.9 4.9 5.0 5.2 5.2 5.0 4.6 4.6 5.0 5.4 5.5 5.2 5.2 5.6
2.7 2.8 nan 3.1 3.3 3.6 3.9 4.1 4.2 4.2 4.2 4.3 4.0 3.9 3.0 4.3 4.4 4.6 4.8 4.8 5.0 5.1 4.9 5.1 4.9 4.9 5.0 5.0 5.2 5.3 5.3 4.8 5.4 5.4 5.4 5.4 4.5 5.8 5.5 5.3 5.3 5.5 5.6
3.1 3.1 3.2 3.3 3.4 3.9 3.9 3.8 4.0 4.1 4.1 4.2 4.3 4.5 3.0 4.0 4.6 4.7 4.7 4.3 3.8 4.5 4.4 4.2 4.5 4.7 4.9 5.0 5.1 4.7 5.2 5.1 4.9 5.2 5.3 5.6 5.4 5.2 5.4 5.5 5.6 5.5 5.6
3.2 3.2 3.5 3.6 3.5 3.1 3.7 3.9 4.0 3.9 4.0 3.9 4.2 4.7 4.8 4.3 4.3 4.6 4.4 3.5 4.4 4.1 3.9 4.0 3.7 4.5 4.0 4.0 4.1 4.6 5.2 5.5 5.2 5.0 5.2 5.1 5.5 5.4 5.3 5.6 5.5 6.0 6.3
3.0 3.0 3.6 3.6 3.6 3.9 3.6 3.6 3.8 3.1 4.1 4.0 3.9 4.1 4.3 4.3 3.7 3.9 3.6 3.2 3.8 3.6 3.5 3.5 4.2 4.6 4.7 3.7 4.0 4.2 4.5 4.5 4.6 5.2 4.8 5.4 5.5 4.5 5.4 5.7 5.6 6.1 6.4
3.2 3.3 3.3 3.6 3.7 3.6 3.6 3.7 4.0 3.8 3.9 3.8 3.9 4.0 4.6 4.2 4.5 3.9 4.2 4.6 4.5 4.2 4.6 4.5 4.6 4.9 4.8 5.2 5.6 5.7 4.6 3.0 4.2 3.0 5.4 5.6 5.4 5.8 6.2 6.4 6.1 6.1 6.5
3.6 3.6 3.7 3.9 4.0 3.8 4.0 4.1 4.2 4.1 4.3 4.1 4.1 4.1 4.3 4.6 4.6 4.3 4.8 5.1 5.5 5.5 5.6 5.8 5.7 6.1 6.4 6.2 6.5 3.2 3.0 3.0 5.1 3.0 5.1 5.5 5.7 5.7 5.7 5.8 6.0 6.5 6.8